Location: Bacharowice
(49.9333°N, 19.5833°E)
Time: 23:30:43
(UTC+00:00)

SOZ - Pass Details

Date: 02 October 2021
Orbit: 306 x 16687 km, 52.0° (Epoch: 18 October)

Event Time Altitude Azimuth Distance (km) Brightness Sun altitude
Rises 00:20:15 0° 210° (SSW) 21,853 12.9 -38.2°
Enters shadow 00:36:42 - 212° (SSW) 20,580 12.7 -36.6°
Exits shadow 01:31:59 27° 216° (SW) 12,532 11.5 -30.0°
Maximum altitude 02:06:47 70° 148° (SSE) 3,852 9.4 -25.2°
Drops below altitude 10° 02:17:32 10° 68° (ENE) 3,852 10.7 -23.7°
Sets 02:19:18 0° 65° (ENE) 4,336 11.3 -23.4°
